Leysin, Switzerland 16 day weather forecast

Slopes altitude range -1 m - -1m

Number of lifts: -1 Pistes: -1km

In some cases the lift and piste totals shown are for the ski domain (e.g. Three Valleys) rather than individual resort (e.g. Courchevel)

Overview

The 16 day weather forecast is fully updated 4 times every day.

    • Thu 21 FEB 2019
    • Thu 21
    • 3C 8C
    • Fri 22 FEB 2019
    • Fri 22
    • -1C 8C
    • Sat 23 FEB 2019
    • Sat 23
    • -1C 7C
    • Sun 24 FEB 2019
    • Sun 24
    • 0C 8C
    • Mon 25 FEB 2019
    • Mon 25
    • 0C 9C
    • Tue 26 FEB 2019
    • Tue 26
    • 1C 10C
    • Wed 27 FEB 2019
    • Wed 27
    • 2C 13C
    • Thu 28 FEB 2019
    • Thu 28
    • 3C 13C
    • Fri 01 MAR 2019
    • Fri 01
    • 3C 14C
    • Sat 02 MAR 2019
    • Sat 02
    • 3C 13C
    • Sun 03 MAR 2019
    • Sun 03
    • 3C 8C
    • Mon 04 MAR 2019
    • Mon 04
    • 2C 15C
    • Tue 05 MAR 2019
    • Tue 05
    • 5C 8C
    • Wed 06 MAR 2019
    • Wed 06
    • 3C 6C
    • Thu 07 MAR 2019
    • Thu 07
    • -4C 1C
    • Fri 08 MAR 2019
    • Fri 08
    • -7C 1C

Date:

Time Type 0°C level Temp Chill Snow Cloud Speed Gust Dir Press
18:00 2301m 8°C 8_4 0cm 16% 4mph 4mph 1030mB
21:00 1798m 1°C 1_5 0cm 0% 5mph 5mph 1031mB
0:00 1407m 0°C 0_5 0cm 0% 5mph 5mph 1032mB
3:00 1354m 0°C 0_5 0cm 0% 5mph 5mph 1032mB
6:00 1322m -1°C -1_5 0cm 0% 5mph 6mph 1032mB
9:00 2760m -1°C -1_4 0cm 0% 4mph 7mph 1031mB
12:00 2816m 8°C 8_7 0cm 0% 7mph 13mph 1029mB
15:00 2737m 8°C 8_9 0cm 0% 9mph 16mph 1029mB
18:00 3172m 8°C 8_6 0cm 0% 6mph 10mph 1031mB
21:00 2477m 1°C 1_5 0cm 0% 5mph 8mph 1032mB
0:00 1784m 0°C 0_5 0cm 0% 5mph 6mph 1032mB
3:00 1707m -1°C -1_3 0cm 0% 3mph 4mph 1031mB
6:00 1336m -1°C -1_3 0cm 0% 3mph 4mph 1032mB
9:00 3480m -1°C -1_3 0cm 0% 3mph 5mph 1031mB
12:00 3507m 7°C 7_4 0cm 0% 4mph 6mph 1030mB
15:00 3471m 7°C 7_3 0cm 0% 3mph 5mph 1029mB
18:00 3655m 7°C 7_4 0cm 4% 4mph 4mph 1031mB
21:00 3753m 1°C 1_3 0cm 19% 3mph 4mph 1032mB
0:00 1828m 0°C 0_3 0cm 9% 3mph 3mph 1033mB
3:00 1767m 0°C 0_3 0cm 0% 3mph 4mph 1033mB
6:00 1709m 0°C 0_4 0cm 0% 4mph 5mph 1033mB
9:00 3530m 0°C 0_2 0cm 30% 2mph 4mph 1033mB
12:00 3627m 8°C 8_3 0cm 32% 3mph 4mph 1032mB
15:00 3629m 8°C 8_4 0cm 27% 4mph 6mph 1031mB
18:00 3587m 8°C 8_4 0cm 13% 4mph 5mph 1033mB
21:00 3513m 1°C 1_3 0cm 0% 3mph 4mph 1034mB
0:00 3454m 1°C 1_3 0cm 0% 3mph 4mph 1034mB
3:00 2666m 0°C 0_3 0cm 27% 3mph 4mph 1033mB
6:00 1436m 0°C 0_4 0cm 27% 4mph 5mph 1034mB
9:00 3388m 0°C 0_4 0cm 0% 4mph 6mph 1034mB
12:00 3204m 9°C 9_5 0cm 12% 5mph 7mph 1032mB
15:00 2854m 9°C 9_4 0cm 0% 4mph 6mph 1032mB
18:00 2825m 9°C 9_3 0cm 0% 3mph 4mph 1034mB
21:00 2686m 2°C 2_4 0cm 0% 4mph 4mph 1035mB
0:00 2611m 2°C 2_4 0cm 0% 4mph 5mph 1035mB
3:00 2858m 2°C 2_4 0cm 0% 4mph 5mph 1034mB
6:00 3244m 1°C 1_4 0cm 0% 4mph 5mph 1034mB
9:00 3418m 1°C 1_3 0cm 0% 3mph 4mph 1032mB
12:00 3373m 10°C 10_4 0cm 8% 4mph 6mph 1030mB
15:00 3373m 10°C 10_4 0cm 88% 4mph 7mph 1029mB
18:00 3418m 10°C 10_4 0cm 73% 4mph 4mph 1030mB
21:00 3515m 3°C 3_3 0cm 6% 3mph 4mph 1030mB
0:00 3558m 3°C 3_4 0cm 3% 4mph 4mph 1029mB
3:00 3533m 2°C 2_4 0cm 0% 4mph 4mph 1028mB
6:00 3503m 2°C 2_4 0cm 0% 4mph 5mph 1027mB
9:00 3492m 2°C 2_2 0cm 9% 2mph 3mph 1026mB
12:00 3460m 13°C 13_2 0cm 26% 2mph 1mph 1024mB
15:00 3449m 13°C 13_2 0cm 86% 2mph 2mph 1022mB
18:00 3410m 13°C 13_4 0cm 92% 4mph 4mph 1024mB
21:00 3308m 5°C 5_5 0cm 99% 5mph 6mph 1024mB
0:00 3171m 4°C 4_6 0cm 95% 6mph 6mph 1025mB
3:00 3019m 4°C 4_5 0cm 24% 5mph 6mph 1025mB
6:00 2937m 3°C 3_5 0cm 12% 5mph 6mph 1025mB
9:00 2904m 3°C 3_3 0cm 0% 3mph 5mph 1025mB
12:00 2874m 13°C 13_3 0cm 25% 3mph 3mph 1024mB
15:00 2746m 13°C 13_3 0cm 23% 3mph 3mph 1023mB
18:00 2703m 13°C 13_1 0cm 17% 1mph 1mph 1024mB
21:00 2520m 4°C 4_3 0cm 0% 3mph 3mph 1026mB
0:00 2489m 3°C 3_3 0cm 0% 3mph 4mph 1026mB
3:00 2302m 4°C 4_2 0cm 34% 2mph 3mph 1025mB
6:00 2230m 3°C 3_2 0cm 22% 2mph 3mph 1026mB
9:00 2274m 3°C 3_1 0cm 37% 1mph 1mph 1025mB
12:00 2280m 14°C 14_2 0cm 57% 2mph 3mph 1024mB
15:00 2281m 14°C 14_2 0cm 48% 2mph 3mph 1022mB
18:00 2225m 14°C 14_3 0cm 40% 3mph 4mph 1024mB
21:00 2256m 5°C 5_1 0cm 42% 1mph 1mph 1024mB
0:00 2297m 4°C 4_2 0cm 50% 2mph 3mph 1024mB
3:00 2166m 4°C 4_4 0cm 46% 4mph 5mph 1023mB
6:00 2105m 3°C 3_6 0cm 51% 6mph 11mph 1023mB
9:00 2130m 3°C 3_12 0cm 95% 12mph 24mph 1021mB
12:00 1995m 13°C 13_16 0cm 72% 16mph 26mph 1019mB
15:00 2029m 13°C 13_17 0cm 41% 17mph 30mph 1017mB
18:00 1949m 13°C 13_15 0cm 60% 15mph 34mph 1018mB
21:00 1957m 8°C 8_19 0cm 97% 19mph 38mph 1018mB
0:00 1889m 8°C 8_18 0cm 97% 18mph 36mph 1019mB
3:00 1517m 6°C 6_8 0cm 100% 8mph 25mph 1021mB
6:00 1187m 3°C 3_6 0cm 99% 6mph 16mph 1023mB
9:00 1285m 3°C 3_12 0cm 92% 12mph 20mph 1025mB
12:00 1486m 8°C 8_14 0cm 91% 14mph 21mph 1025mB
Morning 0.0416667mm 0 2426m 3°C 3_5 0cm 76% 5mph 12mph 1023mB
Afternoon 0mm 0 2520m 15°C 15_15 0cm 84% 15mph 36mph 1012mB
Morning 0.958333mm 3.3125 1644m 6°C 6_12 0cm 98% 12mph 29mph 1014mB
Afternoon 0.265625mm 2.5 1627m 8°C 8_17 0cm 90% 17mph 32mph 1011mB
Morning 0.890625mm 2.875 1564m 5°C 5_12 0cm 95% 12mph 29mph 1007mB
Afternoon 0.375mm 3.25 1352m 6°C 6_15 26cm 83% 15mph 27mph 1013mB
Morning 0.213542mm 1.125 870m 0°C 0_3 9cm 99% 3mph 7mph 1018mB
Afternoon 0.151042mm 1.5 847m 1°C 1_5 12cm 58% 5mph 9mph 1025mB
Morning 0.380208mm 3.8125 1m -6°C -6_2 30cm 96% 2mph 2mph 1034mB
Afternoon 0.015625mm 0.0625 815m 1°C 1_5 0cm 44% 5mph 9mph 1035mB
Morning 0.0104167mm 0.125 1m -5°C -5_2 0cm 58% 2mph 2mph 1036mB
Afternoon 0mm 0 1883m 7°C 7_7 0cm 50% 7mph 14mph 1028mB

16 day outlook at a glance

Forecast issued: 21/02/2019 17:40:46

Chat

Your comments and questions. In a resort? Let us know what it's like!


Characters left 250

For terms and conditions see Readers Comments on the Cookie and privacy policy page.